Weather History for KFOA - October, 2011

Change the Weather History Date:

Saturday, October 8, 2011

  Actual Average (KEVV) Record (KEVV)
Temperature  
Mean Temperature 66 °F 60 °F  
Max Temperature 82 °F 73 °F 92 °F (2007)
Min Temperature 50 °F 48 °F 28 °F (1987)
Degree Days  
Heating Degree Days 0 6  
Month to date heating degree days 44  
Since 1 July heating degree days 91  
Cooling Degree Days 1 1  
Month to date cooling degree days 15  
Year to date cooling degree days 1381  
Growing Degree Days 16 (Base 50)    
Moisture  
Dew Point 50 °F    
Average Humidity 63    
Maximum Humidity 94    
Minimum Humidity 26    
Precipitation  
Precipitation 0.00 in 0.10 in 2.45 in (2009)
Month to date precipitation 0.84  
Year to date precipitation 34.81  
Snow  
Snow 0.00 in 0.00 in T in (1992)
Month to date snowfall 0.0  
Since 1 July snowfall 0.0  
Since 1 September snowfall 0.0  
Snow Depth -    
Sea Level Pressure  
Sea Level Pressure 30.30 in    
Wind  
Wind Speed 4 mph (SE)    
Max Wind Speed 15 mph    
Max Gust Speed 20 mph    
Visibility 8 miles    
Events Fog    
T = Trace of Precipitation, MM = Missing Value Source: NWS Daily Summary

Daily Weather History Graph

Daily Weather History Graph

Search for Another Location

Airport or City:

Trip Planner

Search our weather history database for the weather conditions in past years. The results will help you decide how hot, cold, wet, or windy it might be!

Date:

Astronomy

Oct. 08, 2011 Rise Set
Actual Time 6:55 AM CDT 6:26 PM CDT
Civil Twilight 6:29 AM CDT 6:52 PM CDT
Nautical Twilight 5:58 AM CDT 7:23 PM CDT
Astronomical Twilight 5:27 AM CDT 7:54 PM CDT
Moon 4:35 PM CDT (10/8) 3:44 AM CDT (10/8)
Length of Visible Light 12h 23m
Length of Day
11h 30m
Waxing Gibbous, 90% of the Moon is Illuminated
Oct 8
Waxing Gibbous
Oct 11
Full
Oct 19
Last Quarter
Oct 26
New
Nov 2
First Quarter

Hourly Weather History & Observations

Time (CDT) Temp. Dew Point Humidity Pressure Visibility Wind Dir Wind Speed Gust Speed Precip Events Conditions
12:15 AM 55.4 °F 51.8 °F 88% 30.27 in 10.0 mi Calm Calm - N/A   Clear
12:35 AM 57.2 °F 53.6 °F 88% 30.27 in 10.0 mi Calm Calm - N/A   Clear
12:55 AM 57.2 °F 53.6 °F 88% 30.27 in 7.0 mi Calm Calm - N/A   Clear
1:15 AM 55.4 °F 51.8 °F 88% 30.27 in 7.0 mi SE 3.5 mph - N/A   Clear
1:35 AM 59.0 °F 53.6 °F 82% 30.28 in 10.0 mi Calm Calm - N/A   Clear
1:55 AM 57.2 °F 51.8 °F 82% 30.28 in 10.0 mi Calm Calm - N/A   Clear
2:15 AM 55.4 °F 51.8 °F 88% 30.28 in 7.0 mi Calm Calm - N/A   Clear
2:35 AM 53.6 °F 51.8 °F 94% 30.27 in 7.0 mi Calm Calm - N/A   Clear
2:55 AM 53.6 °F 50.0 °F 88% 30.27 in 7.0 mi Calm Calm - N/A   Clear
3:15 AM 51.8 °F 50.0 °F 94% 30.27 in 7.0 mi Calm Calm - N/A   Clear
3:35 AM 51.8 °F 50.0 °F 94% 30.28 in 10.0 mi Calm Calm - N/A   Clear
3:55 AM 51.8 °F 50.0 °F 94% 30.28 in 7.0 mi Calm Calm - N/A   Clear
4:15 AM 51.8 °F 50.0 °F 94% 30.28 in 7.0 mi Calm Calm - N/A   Clear
4:35 AM 51.8 °F 50.0 °F 94% 30.28 in 7.0 mi Calm Calm - N/A   Clear
4:55 AM 50.0 °F 48.2 °F 94% 30.28 in 4.0 mi Calm Calm - N/A   Clear
5:15 AM 51.8 °F 50.0 °F 94% 30.29 in 1.2 mi Calm Calm - N/A   Mist
5:35 AM 51.8 °F 50.0 °F 94% 30.29 in 0.8 mi Calm Calm - N/A   Mist
5:55 AM 51.8 °F 50.0 °F 94% 30.30 in 1.0 mi Calm Calm - N/A   Mist
6:15 AM 50.0 °F 48.2 °F 94% 30.31 in 3.0 mi Calm Calm - N/A   Clear
6:35 AM 51.8 °F 50.0 °F 94% 30.32 in 0.2 mi Calm Calm - N/A Fog Fog
6:55 AM 53.6 °F 51.8 °F 94% 30.32 in 1.2 mi Calm Calm - N/A   Mist
7:15 AM 53.6 °F 51.8 °F 94% 30.33 in 4.0 mi ESE 4.6 mph - N/A   Clear
7:35 AM 55.4 °F 53.6 °F 94% 30.33 in 7.0 mi SE 3.5 mph - N/A   Clear
7:55 AM 59.0 °F 53.6 °F 82% 30.34 in 7.0 mi SE 3.5 mph - N/A   Clear
8:15 AM 62.6 °F 57.2 °F 82% 30.35 in 10.0 mi SE 4.6 mph - N/A   Clear
8:35 AM 64.4 °F 55.4 °F 73% 30.36 in 10.0 mi SSE 6.9 mph - N/A   Clear
8:55 AM 66.2 °F 55.4 °F 68% 30.36 in 10.0 mi SSE 6.9 mph - N/A   Clear
9:15 AM 68.0 °F 55.4 °F 64% 30.36 in 10.0 mi SSE 10.4 mph - N/A   Clear
9:35 AM 71.6 °F 53.6 °F 53% 30.36 in 10.0 mi South 12.7 mph 18.4 mph N/A   Clear
9:55 AM 73.4 °F 53.6 °F 50% 30.36 in 10.0 mi SSE 11.5 mph 17.3 mph N/A   Clear
10:15 AM 73.4 °F 51.8 °F 47% 30.36 in 10.0 mi South 11.5 mph 18.4 mph N/A   Clear
10:35 AM 75.2 °F 51.8 °F 44% 30.36 in 10.0 mi South 11.5 mph - N/A   Clear
10:55 AM 75.2 °F 50.0 °F 41% 30.36 in 10.0 mi SSE 13.8 mph 19.6 mph N/A   Clear
11:15 AM 77.0 °F 51.8 °F 41% 30.36 in 10.0 mi South 15.0 mph 19.6 mph N/A   Clear
11:35 AM 78.8 °F 50.0 °F 36% 30.35 in 10.0 mi SSE 11.5 mph - N/A   Clear
11:55 AM 78.8 °F 50.0 °F 36% 30.35 in 10.0 mi South 11.5 mph 19.6 mph N/A   Clear
12:15 PM 78.8 °F 50.0 °F 36% 30.34 in 10.0 mi South 5.8 mph - N/A   Clear
12:35 PM 80.6 °F 50.0 °F 34% 30.33 in 10.0 mi South 8.1 mph - N/A   Clear
12:55 PM 80.6 °F 48.2 °F 32% 30.33 in 10.0 mi SSE 12.7 mph 16.1 mph N/A   Clear
1:35 PM 80.6 °F 42.8 °F 26% 30.30 in 10.0 mi ESE 9.2 mph - N/A   Clear
1:55 PM 80.6 °F 44.6 °F 28% 30.30 in 10.0 mi SSE 11.5 mph 18.4 mph N/A   Clear
2:15 PM 80.6 °F 44.6 °F 28% 30.29 in 10.0 mi SSE 13.8 mph 18.4 mph N/A   Clear
2:35 PM 80.6 °F 44.6 °F 28% 30.29 in 10.0 mi SE 9.2 mph - N/A   Clear
2:55 PM 80.6 °F 44.6 °F 28% 30.29 in 10.0 mi SE 9.2 mph - N/A   Clear
3:15 PM 82.4 °F 44.6 °F 26% 30.28 in 10.0 mi ESE 11.5 mph - N/A   Clear
3:35 PM 82.4 °F 44.6 °F 26% 30.28 in 10.0 mi East 12.7 mph - N/A   Clear
3:55 PM 80.6 °F 42.8 °F 26% 30.28 in 10.0 mi ESE 10.4 mph 17.3 mph N/A   Clear
4:15 PM 80.6 °F 42.8 °F 26% 30.27 in 10.0 mi ESE 13.8 mph - N/A   Clear
4:35 PM 80.6 °F 44.6 °F 28% 30.28 in 10.0 mi ESE 13.8 mph - N/A   Clear
4:55 PM 80.6 °F 44.6 °F 28% 30.28 in 10.0 mi SE 15.0 mph - N/A   Clear
5:15 PM 78.8 °F 44.6 °F 30% 30.27 in 10.0 mi ESE 11.5 mph - N/A   Clear
5:35 PM 78.8 °F 46.4 °F 32% 30.28 in 10.0 mi SE 9.2 mph - N/A   Clear
5:55 PM 77.0 °F 50.0 °F 39% 30.27 in 10.0 mi ESE 8.1 mph - N/A   Clear
6:15 PM 73.4 °F 50.0 °F 44% 30.27 in 10.0 mi ESE 5.8 mph - N/A   Clear
6:35 PM 69.8 °F 50.0 °F 49% 30.28 in 10.0 mi ESE 5.8 mph - N/A   Clear
7:15 PM 64.4 °F 50.0 °F 59% 30.28 in 10.0 mi East 3.5 mph - N/A   Clear
7:35 PM 62.6 °F 50.0 °F 63% 30.28 in 10.0 mi East 3.5 mph - N/A   Clear
7:55 PM 62.6 °F 50.0 °F 63% 30.28 in 10.0 mi Calm Calm - N/A   Clear
8:15 PM 60.8 °F 50.0 °F 68% 30.28 in 10.0 mi East 3.5 mph - N/A   Clear
8:35 PM 60.8 °F 51.8 °F 72% 30.29 in 10.0 mi Calm Calm - N/A   Clear
8:55 PM 62.6 °F 51.8 °F 68% 30.29 in 10.0 mi Calm Calm - N/A   Clear
9:35 PM 59.0 °F 50.0 °F 72% 30.29 in 10.0 mi Calm Calm - N/A   Clear
9:55 PM 55.4 °F 48.2 °F 77% 30.29 in 10.0 mi Calm Calm - N/A   Clear
10:15 PM 59.0 °F 51.8 °F 77% 30.29 in 10.0 mi Calm Calm - N/A   Clear
10:55 PM 59.0 °F 51.8 °F 77% 30.30 in 10.0 mi Calm Calm - N/A   Clear